User: anonymous   Login
Location: Innerarity Island Observatory
(30.3139°N, 87.4867°W)
Time: 14:39:14
(UTC-05:00)
Language:

OPAL - Orbit

View from above orbital plane
View from above orbital plane
View from above satellite
View from above satellite

Ground track
Ground track

The orbit data is extracted from the following two-line orbital elements,

1 26063U 00004C   18108.74271576 -.00000006  00000-0  17807-4 0  9992
2 26063 100.1953 173.8752 0036746 166.2791 193.9397 14.36694762955254
Epoch (UTC): 18 April 2018 17:49:30
Eccentricity: 0.0036746
inclination: 100.1953°
perigee height: 743 km
apogee height: 796 km
right ascension of ascending node: 173.8752°
argument of perigee: 166.2791°
revolutions per day: 14.36694762
mean anomaly at epoch: 193.9397°
orbit number at epoch: 95525

The dashed part of the orbit path shows where the satellite is in the earth's shadow,  

DLR